Regional Weather Roundup
Issued by NWS

Home | Current Version | Previous Version | Text Only | Print | Product List | Glossary On
Versions: 1 2 3 4 5 6 7 8 9 10 11 12 13 14 15 16 17 18 19 20 21 22 23 24 25 26 27 28 29 30 31 32 33 34 35 36 37 38 39 40 41 42 43 44 45 46 47 48 49 50
406
ASUS44 KLIX 282210
RWRLA
LOUISIANA WEATHER ROUNDUP
NATIONAL WEATHER SERVICE NEW ORLEANS LA
500 PM CDT MON JUL 28 2014

NOTE: "FAIR" INDICATES FEW OR NO CLOUDS BELOW 12,000 FEET WITH NO
      SIGNIFICANT WEATHER AND/OR OBSTRUCTIONS TO VISIBILITY.
      SKY/WX - SKY CONDITION AND SIGNIFICANT WEATHER.
      TMP - AIR TEMPERATURE.    DP   - DEWPOINT TEMPERATURE.
      RH  - RELATIVE HUMIDITY.  PRES - PRESSURE.
      HX  - HEAT INDEX.         WCI  - WIND CHILL INDEX.

*  THESE STATIONS ARE NOT NWS OR FAA STATIONS AND ARE NOT UNDER
   NWS QUALITY CONTROL.

LAZ040-048-061>063-065-066-069-282300-
SOUTHEAST LOUISIANA

CITY           SKY/WX    TMP DP  RH WIND       PRES   REMARKS
N.O. AUDUBON     N/A     94  76  54 MISG        N/A  HX 107
N.O. INTL ARPT PTSUNNY   90  74  59 W15       30.00F HX  99
N.O. LAKEFRONT PTSUNNY   90  78  68 W17       30.00F HX 104
N.O. DOWNTOWN* MOCLDY    93  73  52 W9        30.01S HX 102
SLIDELL        PTSUNNY   91  77  63 W8        29.98F HX 104
BATON ROUGE    MOSUNNY   91  75  59 W9        30.00F HX 101
BOOTHVILLE     SUNNY     88  79  74 SW17G23   30.01F HX 103
BELLE CHASSE   PTSUNNY   91  73  55 VRB3      29.99F HX  99
BOGALUSA*      FAIR      93  76  56 W8        30.00F HX 105
GALLIANO*      NOT AVBL
NEW ROADS*     MOCLDY    90  76  64 MISG      30.01F HX 102
GONZALES*      FAIR      91  78  66 W6        30.00F HX 106
HAMMOND*       PTSUNNY   93  73  52 W10       30.01F HX 102
HOUMA*         NOT AVBL
PORT FOURCHON* CLEAR     90  77  66 W16G22    30.03F HX 102

$$

LAZ041-044-053-054-282300-
SOUTHWEST LOUISIANA

CITY           SKY/WX    TMP DP  RH WIND       PRES   REMARKS
LAKE CHARLES   MOSUNNY   93  73  52 W7        30.02F HX 102
LAFAYETTE      NOT AVBL
PATTERSON      CLOUDY    88  75  66 W8        30.07F HX  97
SALT POINT       N/A     90  79  70 VRB7      30.03F HX 106
NEW IBERIA     CLOUDY    91  76  61 W9        30.03F HX 103
CHENAULT AIRPK NOT AVBL

$$

LAZ027-028-282300-
CENTRAL LOUISIANA

CITY           SKY/WX    TMP DP  RH WIND       PRES   REMARKS
FORT POLK      MOSUNNY   91  74  57 W8G18     30.03F HX 100
ALEXANDRIA INT MOSUNNY   93  74  53 W7        29.98F HX 103
ALEXANDRIA     MOSUNNY   95  75  52 VRB6      29.99F HX 107

$$

LAZ001-002-282300-
NORTHWEST LOUISIANA

CITY           SKY/WX    TMP DP  RH WIND       PRES   REMARKS
SHREVEPORT     PTSUNNY   93  73  52 NE13      30.02F HX 102
BARKSDALE AFB  MOSUNNY   91  69  48 N8        30.03F HX  95
DTN SHREVEPORT MOSUNNY   91  70  49 N6        30.03F HX  96

$$

LAZ014-016-282300-
NORTHEAST LOUISIANA

CITY           SKY/WX    TMP DP  RH WIND       PRES   REMARKS
MONROE         SUNNY     92  68  45 N8        30.02F HX  96
TALLULAH       SUNNY     90  71  53 NW6       30.01F HX  96

$$




USA.gov is the U.S. government's official web portal to all federal, state and local government web resources and services.